This is the latest recevied weather packets stored in our database for station/object K8KCS-13. If no packets are shown the sender has not sent any weather packets the latest 10 day(s).
| Time | Temp. | Humidity | Pressure | Rain* | Wind** | Luminosity | Snow |
|---|---|---|---|---|---|---|---|
| 1788560161 | 25° C | 80% | 1015.5 hPa | 0 mm | - | 48 W/m² | - |
| 1788559856 | 25° C | 79% | 1015.4 hPa | 0 mm | - | 54 W/m² | - |
| 1788559556 | 25.56° C | 79% | 1015.4 hPa | 0 mm | - | 68 W/m² | - |
| 1788559251 | 25.56° C | 79% | 1015.6 hPa | 0 mm | - | 46 W/m² | - |
| 1788558946 | 25.56° C | 77% | 1015.3 hPa | 0 mm | - | 51 W/m² | - |
| 1788558642 | 25.56° C | 77% | 1015.1 hPa | 0 mm | - | 120 W/m² | - |
| 1788558337 | 25.56° C | 77% | 1014.9 hPa | 0 mm | - | 141 W/m² | - |
| 1788558032 | 25.56° C | 77% | 1015.1 hPa | 0 mm | - | 135 W/m² | - |
| 1788557730 | 25.56° C | 76% | 1015.1 hPa | 0 mm | - | 129 W/m² | - |
| 1788557428 | 26.11° C | 76% | 1014.8 hPa | 0 mm | - | 158 W/m² | - |
| 1788557126 | 26.11° C | 76% | 1014.6 hPa | 0 mm | - | 210 W/m² | - |
| 1788556822 | 26.11° C | 78% | 1014.5 hPa | 0 mm | - | 212 W/m² | - |
| 1788556522 | 26.11° C | 77% | 1014.5 hPa | 0 mm | - | 197 W/m² | - |
| 1788556218 | 26.11° C | 75% | 1014.5 hPa | 0 mm | - | 218 W/m² | - |
| 1788555917 | 26.11° C | 75% | 1014.4 hPa | 0 mm | - | 213 W/m² | - |
| 1788555613 | 26.11° C | 76% | 1014.4 hPa | 0 mm | - | 237 W/m² | - |
| 1788555308 | 26.11° C | 75% | 1014.7 hPa | 0 mm | - | 267 W/m² | - |
| 1788555005 | 26.11° C | 76% | 1014.7 hPa | 0 mm | - | 276 W/m² | - |
| 1788554700 | 26.11° C | 75% | 1014.8 hPa | 0 mm | - | 265 W/m² | - |
| 1788554396 | 26.11° C | 74% | 1014.8 hPa | 0 mm | - | 256 W/m² | - |
| 1788554092 | 26.67° C | 73% | 1014.9 hPa | 0 mm | - | 327 W/m² | - |
| 1788553788 | 26.67° C | 73% | 1015 hPa | 0 mm | - | 336 W/m² | - |
| 1788553484 | 26.67° C | 72% | 1015.1 hPa | 0 mm | - | 280 W/m² | - |
| 1788553180 | 26.67° C | 71% | 1015.2 hPa | 0 mm | - | 295 W/m² | - |
| 1788552875 | 26.67° C | 73% | 1015.3 hPa | 0 mm | - | 414 W/m² | - |
* Rain latest hour (hover to see other rain measurements)
** Current wind speed in m/s (hover to see current wind gust speed)